Hourly Data Report for October 05, 2017

All times are specified in Local Standard Time (LST). Add 1 hour to adjust for Daylight Saving Time where and when it is observed.

THE PAS A
MANITOBA

53°58'17.000" N
101°05'28.000" W
270.60 m
5052881
71867
YQD

Download Data

Hourly Data (October 2017)
Hourly Data Report for October 5, 2017
Temp Definition
°C
Dew Point Temp Definition
°C
Rel Hum Definition
%
Wind Dir Definition
10's deg

Wind Spd Definition
km/h
Visibility Definition
km
Stn Press Definition
kPa
Hmdx Definition


Wind Chill Definition


Weather Definition


TIME
00:00 Legend Double Dagger 1.4 -0.7 86 21 4 24.1 98.74     Clear
01:00 Legend Double Dagger 1.6 -0.2 88 24 4 24.1 98.77     LegendNANA
02:00 Legend Double Dagger 1.4 0.0 90 21 4 24.1 98.76     LegendNANA
03:00 Legend Double Dagger 1.1 -0.2 91 24 5 24.1 98.75     Clear
04:00 Legend Double Dagger 1.0 -0.4 91 25 4 24.1 98.75     LegendNANA
05:00 Legend Double Dagger 0.7 -0.4 92 26 3 24.1 98.75     LegendNANA
06:00 Legend Double Dagger 0.5 -0.5 93 26 7 24.1 98.73     Clear
07:00 Legend Double Dagger 0.2 -0.7 93 26 7 24.1 98.73     LegendNANA
08:00 Legend Double Dagger 1.9 0.9 93 26 13 24.1 98.72     LegendNANA
09:00 Legend Double Dagger 3.6 1.4 85 26 15 24.1 98.69     Clear
10:00 Legend Double Dagger 5.4 1.2 74 26 17 24.1 98.67     LegendNANA
11:00 Legend Double Dagger 7.2 1.5 67 25 16 24.1 98.61     LegendNANA
12:00 Legend Double Dagger 8.4 1.2 60 25 22 24.1 98.56     Mostly Cloudy
13:00 Legend Double Dagger 8.5 1.2 60 26 19 24.1 98.46     LegendNANA
14:00 Legend Double Dagger 9.0 1.4 58 25 22 24.1 98.40     LegendNANA
15:00 Legend Double Dagger 9.7 1.8 58 23 18 24.1 98.33     Mostly Cloudy
16:00 Legend Double Dagger 10.5 1.9 55 23 19 24.1 98.24     LegendNANA
17:00 Legend Double Dagger 10.6 2.3 57 21 12 24.1 98.15     LegendNANA
18:00 Legend Double Dagger 10.6 2.6 57 21 13 24.1 98.04     Mostly Cloudy
19:00 Legend Double Dagger 10.6 3.2 60 21 15 24.1 97.95     LegendNANA
20:00 Legend Double Dagger 10.7 3.5 61 21 14 24.1 97.88     LegendNANA
21:00 Legend Double Dagger 9.8 3.4 64 21 14 24.1 97.83     Clear
22:00 Legend Double Dagger 9.2 3.0 65 21 14 24.1 97.77     LegendNANA
23:00 Legend Double Dagger 8.5 2.5 66 21 13 24.1 97.69     LegendNANA

Notes on Data Quality.

Legend

  • E = Estimated
  • M = Missing
  • NA = Not Available
  • ‡ = Partner data that is not subject to review by the National Climate Archives
Date modified: